Lid_Strength_Index
1 0 -1 -1 -1 -1 -1 -1 -1 -1 -1 -1 -1 -1 -1 -1 -1 -1 -1 -1 -1 -1 -1 -1 -1 -1 -1 -1 -1 -1 -1 -1 -1 -1 -1 -1 -1 -1 -1 -1 -1 -1 -2
1 -0 -1 -1 -1 -1 -1 -1 -1 -1 -1 -1 -1 -1 -1 -1 -1 -1 -1 -1 -1 -1 -1 -1 -1 -1 -1 -1 -1 -1 -1 -1 -1 -1 -1 -1 -2 -1 -1 -1 -1 -1 -1
0 0 -0 -1 -1 -1 -1 -1 -1 -1 -1 -1 -1 -1 -1 -1 -1 -1 -1 -1 -1 -1 -1 -1 -1 -1 -1 -1 -1 -1 -1 -1 -1 -1 -1 -0 -0 -1 -1 -2 -1 -1 -2
-0 -0 -0 -1 -1 -1 -1 -1 -1 -1 -1 -1 -1 -1 -1 -1 -1 -1 -1 -1 -1 -1 -1 -1 -1 -1 -1 -1 -1 -1 -1 -1 -1 -1 -0 -0 -0 -1 -1 -1 -1 -1 -1
3 -0 -1 -2 -2 -2 -1 -1 -1 -1 -1 -1 -1 -1 -1 -1 -1 -1 -1 -1 -1 -1 -1 -1 -1 -1 -1 -1 -1 -1 -1 -1 -1 -1 1 0 0 -1 -1 -1 -1 -1 -1
6 2 1 -0 -1 -1 -2 -2 -1 -1 -1 -1 -1 -1 -1 -1 -1 -1 -1 -1 -1 -1 -1 -1 -1 -1 -1 -1 -1 -1 -1 -1 -1 1 1 -0 0 -1 -1 -1 -1 -1 -1
7 7 4 2 1 1 0 -0 -0 -1 -1 -1 -1 -1 -1 -1 -1 -1 -1 -1 -1 -1 -1 -1 -1 -1 -1 -1 -1 -1 -1 -1 0 1 1 0 0 -1 -1 -1 -1 -1 -1
8 7 7 4 2 2 2 1 1 1 0 1 1 -0 -1 -1 -2 -1 -1 -1 -1 -1 -1 -1 -1 -1 -1 -1 -1 -1 -2 -2 -0 1 1 1 -0 -1 -1 -1 -1 -2 -1
9 9 9 7 7 5 3 2 2 2 2 2 2 1 0 -1 -1 -1 -1 -1 -1 -1 -1 -1 -1 -1 -1 -1 -1 -2 -2 -2 1 1 1 1 -1 -2 -2 -2 -2 -2 -2
9 9 10 8 8 7 7 3 2 2 2 3 3 2 2 2 1 0 -1 -1 -1 -1 -1 -1 -1 -1 -1 -1 -1 -1 -1 -1 1 1 1 1 -2 -2 -2 -2 -2 -2 -2
9 9 9 9 8 7 7 5 4 3 3 4 4 3 4 4 3 2 1 0 -0 -1 -1 -1 -1 -1 -1 -1 -1 -1 -1 0 0 1 0 -1 -2 -2 -2 -2 -2 -2 -2
9 8 8 9 8 7 7 7 6 5 6 5 5 5 4 3 3 1 1 -0 -1 -1 -0 -0 -1 -1 -1 -0 -0 -1 -0 -0 -0 -0 1 -1 -2 -2 -2 -2 -2 -2 -2
8 7 7 7 7 7 6 7 6 6 6 5 5 5 5 5 5 3 3 3 2 0 0 -1 -0 0 0 -0 -0 -0 -0 -0 -0 -0 -1 -1 -2 -2 -2 -2 -2 -2 -2
8 8 7 7 7 7 7 8 7 7 6 6 6 5 6 7 6 5 5 4 4 3 3 2 1 0 -0 -0 0 -0 -0 -0 -0 -0 -0 -1 -1 -2 -2 -2 -2 -2 -2
9 8 7 7 8 7 8 8 8 7 7 7 7 6 6 7 7 6 6 5 5 4 4 4 3 2 1 -0 -0 0 0 -0 0 -0 -0 -1 -1 -2 -2 -2 -2 -2 -2
9 9 8 7 7 8 8 8 8 8 7 7 7 7 6 7 7 7 7 7 7 5 5 4 4 3 2 0 0 0 0 -0 -0 0 0 -0 -1 -1 -2 -2 -2 -2 -2
10 9 9 8 7 8 8 8 8 8 7 8 8 7 7 7 7 7 8 8 7 6 5 5 5 4 4 2 1 0 0 -0 -0 0 0 0 -0 -1 -1 -2 -2 -2 -2
12 11 10 9 9 9 9 8 8 8 8 8 8 7 7 6 7 8 8 8 7 7 6 7 6 6 5 4 4 2 0 0 0 0 -0 -0 0 0 -1 -1 -1 -2 -1
11 11 11 10 10 9 9 8 8 8 7 7 8 8 7 6 6 7 8 8 7 7 7 7 7 7 6 6 5 3 1 1 0 0 0 0 0 -0 -0 -1 -1 -1 -1
10 10 10 9 9 8 7 7 7 7 7 6 7 7 6 6 6 7 7 7 7 8 8 8 8 7 7 6 4 4 3 2 0 1 1 0 0 1 0 0 -0 -0 -1
8 8 8 8 8 7 6 7 7 7 7 6 5 4 5 5 5 6 6 6 7 8 8 8 8 8 8 7 6 5 3 2 1 1 0 0 1 1 0 0 -0 -0 -0
8 8 8 8 8 7 6 6 6 6 5 5 4 3 3 3 3 4 4 4 5 6 7 8 8 9 8 7 7 7 7 5 2 1 1 1 1 0 1 0 -0 0 0
7 7 6 7 7 6 6 5 5 4 4 4 4 3 2 2 1 2 2 2 3 4 5 5 7 7 9 8 7 7 8 7 5 2 2 1 1 1 1 1 0 0 0
5 5 4 4 5 4 4 4 5 5 5 4 4 3 2 2 1 1 1 1 2 2 3 3 3 4 5 7 6 5 6 5 6 6 3 3 4 3 1 1 1 0 0
5 5 4 3 4 4 4 4 4 5 4 4 4 4 3 2 2 2 1 2 2 2 2 3 3 4 3 4 4 5 5 6 5 5 6 5 4 5 5 4 1 0 1
5 5 4 3 3 3 4 4 5 5 5 5 4 5 4 4 3 2 2 2 2 2 3 3 3 3 3 3 3 3 3 5 5 4 5 5 5 5 5 5 5 3 0